Eveleth, MN

10:14 PM CDT on June 27, 2017 (GMT -0500)
Eveleth-Virginia Municipal

Weather History for KEVM - October, 2013

Change the Weather History Date:

Monday, October 28, 2013

  Actual Average Record
Temperature  
Mean Temperature 26 °F -  
Max Temperature 35 °F 44 °F 65 °F (1989)
Min Temperature 17 °F 28 °F 13 °F (1988)
Degree Days  
Heating Degree Days 39    
Moisture  
Dew Point 17 °F    
Average Humidity 67    
Maximum Humidity 93    
Minimum Humidity 41    
Precipitation  
Precipitation 0.00 in - - ()
Sea Level Pressure  
Sea Level Pressure 30.44 in    
Wind  
Wind Speed 5 mph (NE)    
Max Wind Speed 14 mph    
Max Gust Speed 20 mph    
Visibility 10 miles    
Events      
Averages and records for this station are not official NWS values.
T = Trace of Precipitation, MM = Missing Value Source: NWS Daily Summary

Daily Weather History Graph

Daily Weather History Graph

Search for Another Location

Airport or City:

Trip Planner

Search our weather history database for the weather conditions in past years. The results will help you decide how hot, cold, wet, or windy it might be!

Date:

Astronomy

Oct. 28, 2013 Rise Set
Actual Time 7:48 AM CDT 5:58 PM CDT
Civil Twilight 7:16 AM CDT 6:30 PM CDT
Nautical Twilight 6:40 AM CDT 7:06 PM CDT
Astronomical Twilight 6:04 AM CDT 7:42 PM CDT
Moon 1:17 AM CDT 3:02 PM CDT
Length of Visible Light 11h 14m
Length of Day
10h 10m
Waning Crescent, 34% of the Moon is Illuminated
Oct 28
Waning Crescent
Nov 3
New
Nov 9
First Quarter
Nov 17
Full
Nov 25
Last Quarter

Hourly Weather History & Observations

Time (CDT) Temp. Windchill Dew Point Humidity Pressure Visibility Wind Dir Wind Speed Gust Speed Precip Events Conditions
12:07 AM 28.4 °F 19.7 °F 17.6 °F 64% 30.28 in 10.0 mi NE 9.2 mph 19.6 mph N/A   Clear
12:27 AM 28.4 °F 19.1 °F 17.6 °F 64% 30.29 in 10.0 mi NE 10.4 mph 17.3 mph N/A   Clear
12:46 AM 28.4 °F 17.5 °F 17.6 °F 64% 30.30 in 10.0 mi NE 13.8 mph 19.6 mph N/A   Clear
1:07 AM 26.6 °F 16.8 °F 15.8 °F 64% 30.31 in 10.0 mi NE 10.4 mph 18.4 mph N/A   Clear
1:27 AM 26.6 °F 16.8 °F 15.8 °F 64% 30.32 in 10.0 mi NNE 10.4 mph 18.4 mph N/A   Clear
1:47 AM 26.6 °F 15.7 °F 15.8 °F 64% 30.33 in 10.0 mi NE 12.7 mph 19.6 mph N/A   Clear
2:07 AM 26.6 °F 17.5 °F 15.8 °F 64% 30.34 in 10.0 mi NE 9.2 mph 17.3 mph N/A   Clear
2:27 AM 26.6 °F 19.1 °F 15.8 °F 64% 30.35 in 10.0 mi NE 6.9 mph - N/A   Clear
2:47 AM 26.6 °F 19.1 °F 15.8 °F 64% 30.35 in 10.0 mi NE 6.9 mph - N/A   Clear
3:07 AM 24.8 °F 16.1 °F 15.8 °F 69% 30.36 in 10.0 mi ENE 8.1 mph - N/A   Clear
3:27 AM 24.8 °F 16.9 °F 15.8 °F 69% 30.37 in 10.0 mi ENE 6.9 mph - N/A   Clear
3:46 AM 23.0 °F 15.8 °F 15.8 °F 74% 30.37 in 10.0 mi ENE 5.8 mph - N/A   Clear
4:07 AM 23.0 °F 15.8 °F 15.8 °F 74% 30.38 in 10.0 mi NE 5.8 mph - N/A   Clear
4:27 AM 23.0 °F 15.8 °F 15.8 °F 74% 30.38 in 10.0 mi NE 5.8 mph - N/A   Clear
4:46 AM 23.0 °F 18.4 °F 15.8 °F 74% 30.39 in 10.0 mi ENE 3.5 mph - N/A   Clear
5:07 AM 23.0 °F 17.0 °F 15.8 °F 74% 30.40 in 10.0 mi NE 4.6 mph - N/A   Clear
5:27 AM 23.0 °F - 15.8 °F 74% 30.41 in 10.0 mi Calm Calm - N/A   Clear
5:47 AM 21.2 °F 16.4 °F 15.8 °F 80% 30.42 in 10.0 mi ENE 3.5 mph - N/A   Clear
6:06 AM 21.2 °F - 15.8 °F 80% 30.44 in 10.0 mi Calm Calm - N/A   Clear
6:27 AM 21.2 °F - 15.8 °F 80% 30.44 in 10.0 mi Calm Calm - N/A   Clear
6:47 AM 21.2 °F 16.4 °F 15.8 °F 80% 30.44 in 10.0 mi NE 3.5 mph - N/A   Clear
7:06 AM 21.2 °F 16.4 °F 15.8 °F 80% 30.45 in 10.0 mi ENE 3.5 mph - N/A   Clear
7:27 AM 21.2 °F 16.4 °F 14.0 °F 74% 30.46 in 10.0 mi ENE 3.5 mph - N/A   Clear
7:47 AM 21.2 °F - 14.0 °F 74% 30.47 in 10.0 mi Calm Calm - N/A   Clear
8:06 AM 17.6 °F - 12.2 °F 79% 30.48 in 10.0 mi Calm Calm - N/A   Clear
8:27 AM 17.6 °F - 14.0 °F 86% 30.48 in 10.0 mi Calm Calm - N/A   Clear
8:46 AM 19.4 °F - 17.6 °F 93% 30.49 in 10.0 mi Calm Calm - N/A   Clear
9:07 AM 23.0 °F - 19.4 °F 86% 30.50 in 10.0 mi Calm Calm - N/A   Clear
9:27 AM 26.6 °F 20.0 °F 19.4 °F 74% 30.50 in 10.0 mi ENE 5.8 mph - N/A   Clear
9:46 AM 28.4 °F 22.2 °F 19.4 °F 69% 30.50 in 10.0 mi NE 5.8 mph - N/A   Clear
10:07 AM 28.4 °F 21.2 °F 17.6 °F 64% 30.51 in 10.0 mi NE 6.9 mph - N/A   Clear
10:27 AM 30.2 °F 24.3 °F 19.4 °F 64% 30.51 in 10.0 mi NNE 5.8 mph - N/A   Clear
10:46 AM 30.2 °F 24.3 °F 19.4 °F 64% 30.51 in 10.0 mi NNE 5.8 mph - N/A   Clear
11:07 AM 32.0 °F 26.4 °F 19.4 °F 60% 30.51 in 10.0 mi North 5.8 mph - N/A   Clear
11:27 AM 32.0 °F 28.7 °F 19.4 °F 60% 30.51 in 10.0 mi North 3.5 mph - N/A   Clear
11:46 AM 32.0 °F - 19.4 °F 60% 30.51 in 10.0 mi Calm Calm - N/A   Clear
12:07 PM 32.0 °F 27.5 °F 19.4 °F 60% 30.51 in 10.0 mi NE 4.6 mph - N/A   Clear
12:27 PM 32.0 °F - 17.6 °F 55% 30.50 in 10.0 mi Calm Calm - N/A   Clear
12:46 PM 32.0 °F 28.7 °F 17.6 °F 55% 30.49 in 10.0 mi West 3.5 mph - N/A   Clear
1:07 PM 33.8 °F 30.8 °F 19.4 °F 56% 30.49 in 10.0 mi NNW 3.5 mph - N/A   Clear
1:27 PM 35.6 °F 31.7 °F 17.6 °F 48% 30.48 in 10.0 mi SSW 4.6 mph - N/A   Clear
1:46 PM 35.6 °F 32.8 °F 15.8 °F 44% 30.48 in 10.0 mi WSW 3.5 mph - N/A   Clear
2:07 PM 33.8 °F - 15.8 °F 48% 30.47 in 10.0 mi Calm Calm - N/A   Clear
2:27 PM 35.6 °F 31.7 °F 17.6 °F 48% 30.47 in 10.0 mi WNW 4.6 mph - N/A   Clear
2:46 PM 35.6 °F - 17.6 °F 48% 30.47 in 10.0 mi Calm Calm - N/A   Clear
3:07 PM 35.6 °F - 17.6 °F 48% 30.46 in 10.0 mi Calm Calm - N/A   Scattered Clouds
3:27 PM 35.6 °F 32.8 °F 17.6 °F 48% 30.46 in 10.0 mi North 3.5 mph - N/A   Mostly Cloudy
3:47 PM 35.6 °F - 17.6 °F 48% 30.46 in 10.0 mi Calm Calm - N/A   Scattered Clouds
4:06 PM 35.6 °F 32.8 °F 15.8 °F 44% 30.46 in 10.0 mi NNE 3.5 mph - N/A   Clear
4:27 PM 35.6 °F - 14.0 °F 41% 30.45 in 10.0 mi Calm Calm - N/A   Clear
4:47 PM 35.6 °F - 14.0 °F 41% 30.45 in 10.0 mi Calm Calm - N/A   Clear
5:07 PM 33.8 °F - 14.0 °F 44% 30.45 in 10.0 mi Calm Calm - N/A   Clear
5:26 PM 33.8 °F - 14.0 °F 44% 30.44 in 10.0 mi Calm Calm - N/A   Clear
5:47 PM 32.0 °F - 14.0 °F 48% 30.44 in 10.0 mi Calm Calm - N/A   Clear
6:07 PM 32.0 °F - 15.8 °F 51% 30.45 in 10.0 mi Calm Calm - N/A   Clear
6:26 PM 30.2 °F - 17.6 °F 60% 30.45 in 10.0 mi Calm Calm - N/A   Clear
6:47 PM 28.4 °F - 17.6 °F 64% 30.45 in 10.0 mi Calm Calm - N/A   Clear
7:07 PM 26.6 °F - 15.8 °F 64% 30.45 in 10.0 mi Calm Calm - N/A   Clear
7:26 PM 26.6 °F 22.6 °F 17.6 °F 69% 30.45 in 10.0 mi NNE 3.5 mph - N/A   Clear
7:47 PM 24.8 °F - 17.6 °F 74% 30.45 in 10.0 mi Calm Calm - N/A   Clear
8:07 PM 24.8 °F - 17.6 °F 74% 30.45 in 10.0 mi Calm Calm - N/A   Clear
8:26 PM 23.0 °F - 15.8 °F 74% 30.45 in 10.0 mi Calm Calm - N/A   Clear
8:47 PM 23.0 °F - 17.6 °F 80% 30.45 in 10.0 mi Calm Calm - N/A   Clear
9:06 PM 21.2 °F - 15.8 °F 80% 30.45 in 10.0 mi Calm Calm - N/A   Clear
9:27 PM 23.0 °F - 17.6 °F 80% 30.45 in 10.0 mi Calm Calm - N/A   Clear
9:46 PM 21.2 °F 16.4 °F 17.6 °F 86% 30.45 in 10.0 mi SE 3.5 mph - N/A   Clear
10:07 PM 21.2 °F - 17.6 °F 86% 30.46 in 10.0 mi Calm Calm - N/A   Clear
10:27 PM 21.2 °F - 17.6 °F 86% 30.45 in 10.0 mi Calm Calm - N/A   Clear
10:46 PM 21.2 °F - 17.6 °F 86% 30.46 in 10.0 mi Calm Calm - N/A   Clear
11:07 PM 21.2 °F - 15.8 °F 80% 30.45 in 10.0 mi Calm Calm - N/A   Clear
11:27 PM 21.2 °F 14.9 °F 17.6 °F 86% 30.45 in 10.0 mi NNE 4.6 mph - N/A   Clear
11:46 PM 23.0 °F 18.4 °F 17.6 °F 80% 30.45 in 10.0 mi NE 3.5 mph - N/A   Clear